Location: �terpigny
(49.8910°N, 2.9249°E)
Time: 10:43:00
(UTC+00:00)

CUBESAT XI-V - Pass Details

Date: 30 June 2022
Orbit: 668 x 690 km, 98.1° (Epoch: 17 August)

Event Time Altitude Azimuth Distance (km) Brightness Sun altitude
Exits shadow 00:43:17 10° 137° (SE) 2,094 ? -16.0°
Maximum altitude 00:47:34 41° 68° (ENE) 974 ? -15.9°
Drops below altitude 10° 00:51:53 10° 358° (N) 2,112 ? -15.7°
Sets 00:54:12 0° 352° (N) 3,028 ? -15.6°
